Location: Praha
(50.0830°N, 14.4670°E)
Time: 00:58:07
(UTC+01:00)

ISS - Pass Details

Date: 24 May 2018
Orbit: 402 x 408 km, 51.6° (Epoch: 15 November)

Event Time Altitude Azimuth Distance (km) Brightness Sun altitude
Rises 02:59:00 0° 286° (WNW) 2,320 -0.1 -14.4°
Reaches altitude 10° 03:01:17 10° 273° (W) 1,457 -1.3 -14.2°
Enters shadow 03:01:32 12° 270° (W) 1,370 -1.4 -14.2°
